Home   Weather   Billings   Past weeks

Flag for USA Past Weather in Billings, Montana, USA — Yesterday and Last 2 Weeks

Now
54 °F

Broken clouds.


Feels Like: 50 °F
Forecast: 52 / 72 °F
Wind: 14 mph from Southwest

Location: Billings Logan International Airport

Current Time: May 28, 2017 at 6:26:50 am

Latest Report: May 28, 2017 at 5:53 am


Visibility: 10 mi

Pressure: 30.10 "Hg (26.87 "Hg at 946m altitude)

Humidity: 62%

Dew Point: 41 °F

Location of BillingsLocation

Past Weather in Billings — Graph

°F

Billings Temperature Yesterday

Maximum temperature yesterday: 75 °F (at 5:53 pm)
Minimum temperature yesterday: 43 °F (at 5:53 am)
Average temperature yesterday: 61 °F

High & Low Weather Summary for the Past Weeks

 TemperatureHumidityPressure
High80 °F (May 24, 11:53 am)97% (May 17, 10:53 am)30.22 "Hg (May 17, 10:53 am)
Low36 °F (May 19, 3:53 am)19% (May 24, 6:53 pm)29.20 "Hg (May 24, 12:53 pm)
Average54 °F56%29.88 "Hg
* Reported May 13 4:53 am — May 28 4:53 am, Billings. Weather by CustomWeather, © 2017

Note: Actual official high and low records may vary slightly from our data, if they occured in-between our weather recording intervals... More about our weather records

Advertising

Billings Weather History for the Previous 24 Hours

Scroll right to see more
 ConditionsComfort  
Time TempWeatherWind HumidityBarometerVisibility
4:53 am
Sun, May 28
56 °FPartly cloudy.14 mph55%30.09 "Hg10 mi
3:53 am58 °FPassing clouds.13 mph51%30.09 "Hg10 mi
2:53 am58 °FMostly cloudy.7 mph51%30.12 "Hg10 mi
1:53 am57 °FPassing clouds.10 mph51%30.11 "Hg10 mi
12:53 am57 °FPassing clouds.12 mph51%30.11 "Hg10 mi
11:53 pm
Sat, May 27
60 °FPassing clouds.10 mph42%30.06 "Hg10 mi
10:53 pm63 °FPassing clouds.12 mph40%30.06 "Hg10 mi
9:53 pm64 °FPartly cloudy.10 mph38%30.06 "Hg10 mi
8:53 pm65 °FPartly cloudy.13 mph37%30.06 "Hg10 mi
7:53 pm68 °FBroken clouds.13 mph33%30.05 "Hg10 mi
6:53 pm71 °FScattered clouds.20 mph28%30.05 "Hg10 mi
5:53 pm75 °FBroken clouds.18 mph21%30.03 "Hg10 mi
4:56 pm71 °FBroken clouds.13 mph25%30.08 "Hg10 mi
4:30 pm69 °FLight rain. Broken clouds.13 mph29%30.08 "Hg10 mi
3:53 pm74 °FBroken clouds.13 mph25%30.03 "Hg10 mi
2:53 pm68 °FBroken clouds.8 mph33%30.05 "Hg10 mi
1:53 pm70 °FBroken clouds.20 mph26%30.03 "Hg10 mi
12:53 pm68 °FPartly sunny.21 mph27%30.03 "Hg10 mi
11:53 am70 °FBroken clouds.12 mph23%30.02 "Hg10 mi
11:39 am68 °FScattered clouds.9 mph27%30.07 "Hg10 mi
10:53 am66 °FScattered clouds.9 mph37%30.03 "Hg10 mi
9:53 am59 °FScattered clouds.13 mph49%30.05 "Hg10 mi
8:53 am54 °FPassing clouds.14 mph57%30.05 "Hg10 mi
7:53 am49 °FPassing clouds.17 mph64%30.04 "Hg10 mi
6:53 am44 °FPassing clouds.16 mph73%30.03 "Hg10 mi
Weather by CustomWeather, © 2017

See weather overviewHow to use our weather pages